Location: Newark
(46.9000°N, 28.3500°E)
Time: 07:34:24
(UTC+00:00)

Explorer 7 - Pass Details

Date: 25 August 2019
Orbit: 485 x 680 km, 50.3° (Epoch: 17 October)

Event Time Altitude Azimuth Distance (km) Brightness Sun altitude
Rises 13:06:50 0° 289° (WNW) 2,856 11.0 37.9°
Reaches altitude 10° 13:09:33 10° 275° (W) 1,910 10.5 37.5°
Maximum altitude 13:12:57 23° 223° (SW) 1,233 10.2 37.0°
Drops below altitude 10° 13:16:12 10° 171° (S) 1,804 9.8 36.5°
Sets 13:18:41 0° 156° (SSE) 2,656 10.3 36.1°
